ANA86 RJGG-RJTT

Flight info

Callsign ANA86
Flight time 0h 39m
Altitude 25000
Route BOGON Y23 ARTIC Y71 XAC
Aircraft B738/M-SDE2FGILORVWXY/L

Departure

Time 2026-05-05 12:33
Airport Chubu Centrair International Airport (RJGG)

Arrival

Time 2026-05-05 13:13
Airport Tokyo Haneda International Airport (RJTT)
Time Latitude Longitude Altitude Speed Heading
2026-05-05 12:13 34.85985 136.81292 27 ft 0 kts 117°
2026-05-05 12:22 34.85989 136.81282 27 ft 4 kts 117°
2026-05-05 12:22 34.85997 136.81263 27 ft 4 kts 117°
2026-05-05 12:23 34.86003 136.81249 27 ft 4 kts 117°
2026-05-05 12:23 34.86015 136.81221 27 ft 2 kts 117°
2026-05-05 12:23 34.86024 136.81196 27 ft 4 kts 101°
2026-05-05 12:23 34.86024 136.81164 27 ft 4 kts 78°
2026-05-05 12:24 34.86019 136.81137 27 ft 3 kts 79°
2026-05-05 12:24 34.86014 136.81105 27 ft 4 kts 79°
2026-05-05 12:24 34.86012 136.81093 27 ft 0 kts 79°
2026-05-05 12:26 34.86016 136.81115 27 ft 8 kts 79°
2026-05-05 12:27 34.86061 136.81168 27 ft 10 kts 359°
2026-05-05 12:27 34.86088 136.81102 27 ft 10 kts 259°
2026-05-05 12:27 34.86072 136.81002 27 ft 16 kts 259°
2026-05-05 12:27 34.86052 136.80869 27 ft 12 kts 269°
2026-05-05 12:28 34.86117 136.80825 27 ft 13 kts 349°
2026-05-05 12:28 34.86256 136.80793 27 ft 26 kts 348°
2026-05-05 12:28 34.86436 136.80750 27 ft 26 kts 349°
2026-05-05 12:28 34.86606 136.80709 27 ft 24 kts 348°
2026-05-05 12:29 34.86765 136.80671 27 ft 23 kts 349°
2026-05-05 12:29 34.86916 136.80635 27 ft 22 kts 349°
2026-05-05 12:29 34.87065 136.80599 27 ft 22 kts 349°
2026-05-05 12:29 34.87210 136.80564 27 ft 21 kts 349°
2026-05-05 12:30 34.87320 136.80538 27 ft 12 kts 348°
2026-05-05 12:30 34.87400 136.80515 27 ft 12 kts 335°
2026-05-05 12:30 34.87417 136.80427 27 ft 11 kts 257°
2026-05-05 12:30 34.87402 136.80334 26 ft 11 kts 259°
2026-05-05 12:31 34.87387 136.80243 29 ft 11 kts 259°
2026-05-05 12:31 34.87368 136.80173 26 ft 7 kts 217°
2026-05-05 12:31 34.87323 136.80183 26 ft 0 kts 169°
2026-05-05 12:32 34.87306 136.80186 26 ft 18 kts 169°
2026-05-05 12:32 34.86924 136.80279 28 ft 93 kts 168°
2026-05-05 12:33 34.86073 136.80483 28 ft 154 kts 169°
2026-05-05 12:33 34.84930 136.80747 502 ft 170 kts 168°
2026-05-05 12:33 34.83787 136.80943 1469 ft 163 kts 175°
2026-05-05 12:33 34.82634 136.80995 2229 ft 174 kts 176°
2026-05-05 12:34 34.81304 136.81034 2591 ft 207 kts 177°
2026-05-05 12:34 34.79777 136.81070 2914 ft 229 kts 177°
2026-05-05 12:34 34.78130 136.81105 3358 ft 248 kts 177°
2026-05-05 12:34 34.76378 136.81140 3988 ft 259 kts 178°
2026-05-05 12:35 34.74570 136.81180 4989 ft 260 kts 175°
2026-05-05 12:35 34.72845 136.81780 5949 ft 261 kts 148°
2026-05-05 12:35 34.71522 136.83283 6879 ft 264 kts 125°
2026-05-05 12:35 34.70581 136.85237 7714 ft 271 kts 120°
2026-05-05 12:36 34.69668 136.87279 8527 ft 278 kts 120°
2026-05-05 12:36 34.68733 136.89357 9347 ft 284 kts 120°
2026-05-05 12:36 34.67810 136.91489 10168 ft 289 kts 113°
2026-05-05 12:36 34.67308 136.93946 10609 ft 311 kts 101°
2026-05-05 12:37 34.66992 136.96662 10832 ft 336 kts 98°
2026-05-05 12:37 34.66697 136.99541 11395 ft 347 kts 98°
2026-05-05 12:37 34.66397 137.02467 12179 ft 351 kts 99°
2026-05-05 12:37 34.66082 137.05417 12986 ft 353 kts 99°
2026-05-05 12:38 34.65752 137.08397 13693 ft 359 kts 99°
2026-05-05 12:38 34.65407 137.11434 14365 ft 365 kts 99°
2026-05-05 12:38 34.65056 137.14468 15050 ft 370 kts 99°
2026-05-05 12:38 34.64693 137.17583 15736 ft 375 kts 100°
2026-05-05 12:39 34.64323 137.20733 16411 ft 379 kts 100°
2026-05-05 12:39 34.63948 137.23928 17055 ft 384 kts 100°
2026-05-05 12:39 34.63568 137.27158 17700 ft 389 kts 100°
2026-05-05 12:39 34.63184 137.30421 18321 ft 393 kts 100°
2026-05-05 12:40 34.62792 137.33732 18891 ft 399 kts 100°
2026-05-05 12:40 34.62355 137.37087 19366 ft 405 kts 105°
2026-05-05 12:40 34.61392 137.40308 19839 ft 409 kts 116°
2026-05-05 12:40 34.60208 137.43474 20360 ft 414 kts 117°
2026-05-05 12:41 34.58997 137.46667 20823 ft 421 kts 117°
2026-05-05 12:41 34.57783 137.49931 21277 ft 427 kts 117°
2026-05-05 12:41 34.56578 137.53250 21756 ft 432 kts 117°
2026-05-05 12:41 34.55366 137.56616 22196 ft 438 kts 117°
2026-05-05 12:42 34.54348 137.60140 22555 ft 450 kts 103°
2026-05-05 12:42 34.54135 137.63953 22977 ft 457 kts 91°
2026-05-05 12:42 34.54166 137.67831 23418 ft 462 kts 90°
2026-05-05 12:42 34.54227 137.71755 23757 ft 469 kts 90°
2026-05-05 12:43 34.54280 137.75738 24080 ft 476 kts 90°
2026-05-05 12:43 34.54312 137.79771 24474 ft 480 kts 91°
2026-05-05 12:43 34.54324 137.83833 24940 ft 482 kts 91°
2026-05-05 12:43 34.54324 137.87913 25254 ft 488 kts 92°
2026-05-05 12:44 34.54317 137.92066 25255 ft 497 kts 92°
2026-05-05 12:44 34.54310 137.96285 25264 ft 502 kts 92°
2026-05-05 12:44 34.54304 138.00456 25255 ft 499 kts 92°
2026-05-05 12:44 34.54298 138.04704 25261 ft 497 kts 92°
2026-05-05 12:45 34.54290 138.08844 25268 ft 498 kts 92°
2026-05-05 12:45 34.54282 138.13047 25262 ft 498 kts 92°
2026-05-05 12:45 34.54272 138.17254 25271 ft 498 kts 92°
2026-05-05 12:45 34.54261 138.21461 25271 ft 499 kts 92°
2026-05-05 12:46 34.54248 138.25666 25261 ft 499 kts 92°
2026-05-05 12:46 34.54235 138.29869 25263 ft 498 kts 92°
2026-05-05 12:46 34.54284 138.34074 25271 ft 500 kts 86°
2026-05-05 12:46 34.54792 138.38236 25266 ft 500 kts 77°
2026-05-05 12:47 34.55754 138.42286 25264 ft 499 kts 68°
2026-05-05 12:47 34.57186 138.46109 25274 ft 497 kts 61°
2026-05-05 12:47 34.58772 138.49827 25264 ft 496 kts 60°
2026-05-05 12:47 34.60380 138.53535 25265 ft 495 kts 60°
2026-05-05 12:48 34.61969 138.57244 25267 ft 495 kts 60°
2026-05-05 12:48 34.63537 138.60967 25263 ft 494 kts 61°
2026-05-05 12:48 34.65064 138.64645 25251 ft 482 kts 61°
2026-05-05 12:48 34.66553 138.68258 25261 ft 476 kts 61°
2026-05-05 12:49 34.68034 138.71847 25259 ft 475 kts 61°
2026-05-05 12:49 34.69511 138.75434 25269 ft 475 kts 62°
2026-05-05 12:49 34.70741 138.79165 24866 ft 477 kts 72°
2026-05-05 12:49 34.71477 138.83087 24390 ft 473 kts 82°
2026-05-05 12:50 34.71706 138.87036 23902 ft 468 kts 91°
2026-05-05 12:50 34.71630 138.90972 23416 ft 463 kts 92°
2026-05-05 12:50 34.71544 138.94876 22915 ft 459 kts 92°
2026-05-05 12:50 34.71521 138.98730 22457 ft 454 kts 88°
2026-05-05 12:51 34.71913 139.02450 22033 ft 447 kts 77°
2026-05-05 12:51 34.72800 139.06042 21560 ft 441 kts 66°
2026-05-05 12:51 34.74055 139.09422 21098 ft 435 kts 64°
2026-05-05 12:51 34.75331 139.12740 20623 ft 431 kts 64°
2026-05-05 12:52 34.76588 139.16021 20150 ft 426 kts 64°
2026-05-05 12:52 34.77825 139.19276 19676 ft 421 kts 64°
2026-05-05 12:52 34.79039 139.22503 19206 ft 417 kts 65°
2026-05-05 12:52 34.80235 139.25704 18730 ft 412 kts 65°
2026-05-05 12:53 34.81413 139.28872 18253 ft 408 kts 65°
2026-05-05 12:53 34.82573 139.32000 17779 ft 403 kts 65°
2026-05-05 12:53 34.83719 139.35093 17303 ft 399 kts 66°
2026-05-05 12:53 34.84850 139.38150 16827 ft 394 kts 65°
2026-05-05 12:54 34.87077 139.44176 15873 ft 386 kts 66°
2026-05-05 12:54 34.88171 139.47139 15402 ft 382 kts 65°
2026-05-05 12:54 34.89256 139.50084 14925 ft 378 kts 66°
2026-05-05 12:55 34.90322 139.52977 14651 ft 369 kts 66°
2026-05-05 12:55 34.91445 139.55745 14406 ft 360 kts 57°
2026-05-05 12:55 34.92846 139.58225 14191 ft 353 kts 53°
2026-05-05 12:55 34.94303 139.60621 13963 ft 351 kts 52°
2026-05-05 12:56 34.95776 139.63013 13749 ft 354 kts 52°
2026-05-05 12:56 34.97270 139.65426 13527 ft 357 kts 52°
2026-05-05 12:56 34.98744 139.67803 13303 ft 355 kts 52°
2026-05-05 12:56 35.00229 139.70195 13096 ft 353 kts 52°
2026-05-05 12:57 35.01713 139.72588 13025 ft 353 kts 52°
2026-05-05 12:57 35.03193 139.74976 13006 ft 353 kts 52°
2026-05-05 12:57 35.04671 139.77361 13001 ft 353 kts 52°
2026-05-05 12:57 35.06155 139.79744 12998 ft 353 kts 51°
2026-05-05 12:58 35.07750 139.82026 12826 ft 354 kts 47°
2026-05-05 12:58 35.08869 139.83521 12647 ft 352 kts 46°
2026-05-05 12:58 35.11057 139.86385 12321 ft 348 kts 46°
2026-05-05 12:58 35.12181 139.87860 12148 ft 347 kts 46°
2026-05-05 12:59 35.13817 139.90024 11908 ft 346 kts 46°
2026-05-05 12:59 35.15443 139.92192 11652 ft 345 kts 47°
2026-05-05 12:59 35.17036 139.94333 11400 ft 344 kts 47°
2026-05-05 13:00 35.20241 139.98662 10908 ft 342 kts 47°
2026-05-05 13:00 35.21838 140.00826 10657 ft 341 kts 47°
2026-05-05 13:01 35.26441 140.07074 10082 ft 313 kts 47°
2026-05-05 13:01 35.27864 140.09010 9877 ft 298 kts 47°
2026-05-05 13:01 35.29237 140.10876 9685 ft 292 kts 47°
2026-05-05 13:01 35.30587 140.12712 9468 ft 288 kts 47°
2026-05-05 13:02 35.31920 140.14526 9252 ft 284 kts 47°
2026-05-05 13:02 35.33443 140.16018 9019 ft 281 kts 20°
2026-05-05 13:02 35.35325 140.16549 8835 ft 277 kts
2026-05-05 13:02 35.37226 140.16919 8619 ft 276 kts
2026-05-05 13:03 35.39116 140.17296 8430 ft 275 kts
2026-05-05 13:03 35.41011 140.17690 8131 ft 276 kts
2026-05-05 13:03 35.42899 140.18098 7932 ft 274 kts
2026-05-05 13:03 35.44769 140.18511 7752 ft 273 kts
2026-05-05 13:04 35.46634 140.18929 7593 ft 273 kts
2026-05-05 13:04 35.48510 140.19353 7422 ft 274 kts
2026-05-05 13:04 35.50388 140.19778 7237 ft 275 kts
2026-05-05 13:04 35.52244 140.20200 7067 ft 273 kts
2026-05-05 13:05 35.54127 140.20159 6771 ft 273 kts 345°
2026-05-05 13:05 35.55951 140.19523 6453 ft 273 kts 342°
2026-05-05 13:05 35.57754 140.18774 6102 ft 274 kts 330°
2026-05-05 13:05 35.59175 140.17282 5886 ft 267 kts 305°
2026-05-05 13:06 35.60141 140.15368 5672 ft 261 kts 298°
2026-05-05 13:06 35.60707 140.13302 5440 ft 254 kts 270°
2026-05-05 13:06 35.60580 140.11169 5289 ft 247 kts 263°
2026-05-05 13:06 35.60494 140.09101 5130 ft 238 kts 267°
2026-05-05 13:07 35.60483 140.07091 4857 ft 233 kts 268°
2026-05-05 13:07 35.60481 140.05113 4546 ft 228 kts 267°
2026-05-05 13:07 35.60475 140.03191 4248 ft 221 kts 267°
2026-05-05 13:07 35.60467 140.01345 3955 ft 211 kts 266°
2026-05-05 13:08 35.60460 139.99583 3673 ft 202 kts 266°
2026-05-05 13:08 35.60453 139.97886 3410 ft 196 kts 265°
2026-05-05 13:08 35.60445 139.96231 3157 ft 192 kts 264°
2026-05-05 13:08 35.60437 139.94605 2906 ft 189 kts 264°
2026-05-05 13:09 35.60430 139.93009 2670 ft 185 kts 264°
2026-05-05 13:09 35.60424 139.91447 2426 ft 181 kts 265°
2026-05-05 13:09 35.60418 139.89921 2187 ft 174 kts 264°
2026-05-05 13:09 35.60412 139.88494 1975 ft 167 kts 264°
2026-05-05 13:10 35.60405 139.87086 1747 ft 162 kts 264°
2026-05-05 13:10 35.60400 139.85747 1588 ft 154 kts 264°
2026-05-05 13:10 35.60394 139.84428 1359 ft 152 kts 264°
2026-05-05 13:10 35.60381 139.83149 1206 ft 149 kts 264°
2026-05-05 13:11 35.60348 139.81874 1201 ft 150 kts 262°
2026-05-05 13:11 35.60088 139.80658 1227 ft 151 kts 236°
2026-05-05 13:11 35.59342 139.79772 997 ft 150 kts 208°
2026-05-05 13:11 35.58433 139.79166 636 ft 147 kts 210°
2026-05-05 13:12 35.57608 139.78460 279 ft 143 kts 213°
2026-05-05 13:12 35.56807 139.77766 103 ft 140 kts 213°
2026-05-05 13:12 35.56029 139.77094 30 ft 120 kts 216°
2026-05-05 13:12 35.55521 139.76658 26 ft 58 kts 215°
2026-05-05 13:13 35.55288 139.76490 27 ft 33 kts 198°
2026-05-05 13:13 35.55148 139.76454 28 ft 13 kts 189°
2026-05-05 13:13 35.55078 139.76475 24 ft 11 kts 132°
2026-05-05 13:13 35.55085 139.76554 26 ft 10 kts 39°
2026-05-05 13:14 35.55144 139.76604 24 ft 10 kts 35°
2026-05-05 13:14 35.55220 139.76671 24 ft 19 kts 35°
2026-05-05 13:14 35.55343 139.76776 23 ft 22 kts 35°
2026-05-05 13:14 35.55469 139.76884 24 ft 22 kts 35°
2026-05-05 13:15 35.55583 139.76982 23 ft 15 kts 35°
2026-05-05 13:15 35.55670 139.77056 26 ft 15 kts 35°
2026-05-05 13:15 35.55755 139.77130 24 ft 17 kts 35°
2026-05-05 13:15 35.55867 139.77225 23 ft 21 kts 35°
2026-05-05 13:16 35.55959 139.77357 24 ft 20 kts 60°
2026-05-05 13:16 35.56029 139.77507 22 ft 20 kts 60°
2026-05-05 13:16 35.56099 139.77654 25 ft 20 kts 60°
2026-05-05 13:16 35.56165 139.77794 24 ft 19 kts 60°
2026-05-05 13:17 35.56231 139.77933 25 ft 18 kts 60°
2026-05-05 13:17 35.56293 139.78063 24 ft 18 kts 60°
2026-05-05 13:17 35.56341 139.78171 24 ft 11 kts 74°
2026-05-05 13:17 35.56298 139.78241 27 ft 12 kts 150°
2026-05-05 13:18 35.56209 139.78304 23 ft 19 kts 150°
2026-05-05 13:18 35.56088 139.78390 23 ft 20 kts 149°
2026-05-05 13:18 35.55968 139.78475 22 ft 20 kts 150°
2026-05-05 13:18 35.55851 139.78557 24 ft 19 kts 150°
2026-05-05 13:19 35.55745 139.78633 26 ft 15 kts 149°
2026-05-05 13:19 35.55669 139.78685 24 ft 9 kts 158°
2026-05-05 13:19 35.55634 139.78681 24 ft 1 kts 231°
2026-05-05 13:19 35.55633 139.78668 24 ft 2 kts 266°
2026-05-05 13:20 35.55631 139.78640 24 ft 4 kts 266°
2026-05-05 13:20 35.55630 139.78623 24 ft 0 kts 266°
2026-05-05 13:20 35.55630 139.78622 24 ft 0 kts 266°